[[{"header":{"parameterUnit":"m.s-1","parameterCategory":2,"la1":30.2991,"la2":30.254,"lo1":-89.0895,"lo2":-89.0444,"dy":0.0017,"dx":0.0017,"nx":28,"ny":28,"refTime":"2024-05-25T03:00:00:Z","depth":"0","parameterNumber":2,"parameterNumberName":"U-component_of_CURRENTS"},"data":[0,0,0,0,0,0,0,0,0,0,0,0,0,0,0,0,0,0,0,0,0,0,0,0,0,0,0,0,0,0,0,0,0,0,0,0,0,0,0,0,0,0,0,0,0,0,0,0,0,0,0,0,0,0,0,0,0,0,0.2983,0.2983,0,0.298,0.298,0.298,0.2959,0.2958,0.2958,0.2958,0.2944,0.2944,0.2944,0,0,0,0,0,0,0,0,0,0,0,0,0,0.2989,0.2989,0.2983,0.2983,0.2983,0.298,0.298,0.298,0.2959,0.2958,0.2958,0.2957,0.2944,0.2944,0.2944,0,0,0,0,0,0,0,0,0,0,0,0,0,0.2985,0.2989,0.2983,0.2973,0.2973,0.298,0.298,0.298,0.2959,0.2958,0.2958,0.2957,0.2944,0.2944,0.2944,0.2955,0,0,0.2943,0.2943,0,0,0,0,0,0,0,0,0.2985,0.2985,0.2975,0.2974,0.2973,0.2971,0.2977,0.2971,0.2959,0.2962,0.2958,0.2957,0.2953,0.2952,0.2951,0.2954,0.2954,0.2943,0.2943,0.2943,0.2943,0,0,0,0,0,0,0,0.2986,0.2985,0.298,0.2975,0.2974,0.2976,0.2974,0.2976,0.296,0.2962,0.2961,0.2963,0.2952,0.2951,0.295,0.2953,0.2943,0.2943,0.2943,0.2943,0.301,0.3012,0,0,0,0,0,0,0.2989,0.2985,0.298,0.298,0.298,0.2976,0.2975,0.2971,0.296,0.2958,0.2964,0.2962,0.2951,0.295,0.295,0.3001,0.2943,0.2943,0.2943,0.3008,0.3011,0.3012,0,0,0,0,0,0,0.2989,0.2988,0.2981,0.2984,0.2984,0.2977,0.2973,0.2971,0.2975,0.2961,0.2959,0.2971,0.2951,0.295,0.2965,0.2999,0.2943,0.2943,0.3006,0.3009,0.3012,0.3079,0,0,0,0,0,0,0.2989,0.2988,0.299,0.2984,0.2984,0.2995,0.2974,0.2971,0.2978,0.2976,0.2967,0.2964,0.295,0.2965,0.2965,0.2998,0.2943,0.3004,0.3007,0.3011,0.3074,0.3083,0.3091,0,0,0,0,0,0.2989,0.2993,0.299,0.2989,0.2985,0.2996,0.2996,0.2988,0.2979,0.2988,0.2984,0.2965,0.2987,0.2967,0.2966,0.2999,0.3002,0.3007,0.301,0.307,0.3081,0.3091,0,0,0,0,0,0,0.2993,0.2991,0.2987,0.2989,0.2997,0.2993,0.3,0.2996,0.3,0.2998,0.2982,0.298,0.3009,0.2997,0.2975,0.303,0.2994,0.2998,0.304,0.305,0.3059,0.3051,0.2943,0,0,0,0,0,0.2997,0.3,0.3002,0.3005,0.301,0.3008,0.3012,0.3009,0.3011,0.3011,0.3003,0.3006,0.3026,0.303,0.3036,0.3062,0.3072,0.3086,0.3095,0.3102,0.3097,0.3169,0.3183,0.3026,0.3026,0.3026,0,0,0.2995,0.2999,0.2998,0.3007,0.301,0.3024,0.3009,0.302,0.3036,0.301,0.3026,0.3032,0.304,0.3072,0.3084,0.3064,0.3152,0.3107,0.3113,0.3104,0.3174,0.319,0.3203,0.3028,0.3028,0.3027,0,0,0.2999,0.3003,0.3007,0.3021,0.3035,0.3041,0.3048,0.305,0.3056,0.308,0.3072,0.3099,0.3113,0.3128,0.314,0.32,0.3196,0.3206,0.3241,0.3311,0.3325,0.3337,0.3369,0.3383,0.3209,0.3209,0.321,0,0.2999,0.3005,0.3012,0.3027,0.3042,0.3051,0.3066,0.3081,0.3088,0.3108,0.3094,0.3147,0.3144,0.3203,0.3218,0.3219,0.3246,0.3201,0.3323,0.3335,0.3346,0.3376,0.3391,0.3213,0.3213,0.3212,0.3212,0,0.3007,0.3018,0.3027,0.3049,0.3068,0.3086,0.311,0.3133,0.3147,0.3164,0.322,0.3227,0.3261,0.3272,0.3259,0.334,0.3329,0.3328,0.3296,0.3366,0.3393,0.3407,0.3218,0.3217,0.3216,0.3215,0,0,0.2981,0.3024,0.3023,0.3038,0.3083,0.3094,0.3145,0.3191,0.3227,0.3254,0.331,0.3344,0.3353,0.3365,0.3366,0.3412,0.3506,0.34,0.3402,0.3428,0.3646,0.3569,0.3576,0.3537,0.3539,0.3542,0.3632,0,0.2983,0.3008,0.3037,0.3068,0.3082,0.313,0.3174,0.3222,0.3268,0.3325,0.3369,0.3417,0.3391,0.3414,0.3463,0.3502,0.3547,0.348,0.3575,0.3577,0.3499,0.3592,0.3416,0.3477,0.3646,0.3648,0.365,0,0.2971,0.2993,0.302,0.3076,0.3088,0.3119,0.3199,0.3242,0.3341,0.3382,0.3454,0.3487,0.3565,0.353,0.3642,0.3605,0.3625,0.3645,0.365,0.3561,0.3527,0.3435,0.3496,0.3436,0.3672,0.367,0.3668,0,0.2925,0.2975,0.2998,0.3016,0.3086,0.3121,0.3168,0.3258,0.3306,0.3425,0.3486,0.3576,0.3638,0.3696,0.3736,0.3706,0.3852,0.3822,0.3768,0.3762,0.3618,0.3594,0.3625,0.3899,0.3899,0.3899,0.3899,0,0.2906,0.2918,0.2979,0.2989,0.3028,0.3092,0.3153,0.3221,0.3329,0.3408,0.3508,0.3588,0.3688,0.3778,0.379,0.3831,0.3908,0.3787,0.3794,0.3635,0.3612,0.3555,0.3523,0.3902,0.3902,0.3901,0.39,0,0.2845,0.2885,0.2911,0.2983,0.3004,0.3032,0.3128,0.3179,0.3298,0.3414,0.3461,0.3626,0.3751,0.3828,0.3933,0.3899,0.3829,0.3927,0.3713,0.3691,0.3543,0.352,0.3387,0.3301,0.3878,0.3877,0.3876,0,0.2814,0.2822,0.2885,0.29,0.2933,0.2986,0.3027,0.3143,0.3208,0.343,0.3485,0.3658,0.3756,0.3884,0.3867,0.3892,0.3798,0.3725,0.3624,0.3525,0.3507,0.3356,0.3283,0.3464,0.346,0.3456,0.3453,0,0.276,0.2786,0.2808,0.2837,0.2875,0.2916,0.2991,0.303,0.3196,0.331,0.3476,0.3579,0.3722,0.3683,0.3718,0.3696,0.3534,0.3651,0.3622,0.3244,0.301,0.2932,0.34,0.3422,0.3425,0.3428,0.3429,0.3431,0.2714,0.2715,0.2745,0.2762,0.2798,0.2829,0.2836,0.2938,0.3025,0.3164,0.3345,0.3432,0.3498,0.3516,0.3484,0.3329,0.3325,0.3207,0.3207,0.3079,0.2924,0.3304,0.3288,0.329,0.3292,0.3294,0.3295,0,0.2644,0.265,0.2668,0.2677,0.2668,0.2729,0.2791,0.2789,0.2849,0.2994,0.3107,0.3151,0.3101,0.3126,0.304,0.292,0.2762,0.2839,0.2606,0.2576,0.2989,0.29,0.271,0.271,0.271,0.271,0.2711,0.2711,0.2608,0.2584,0.2586,0.2533,0.2541,0.2511,0.2523,0.2552,0.2615,0.2642,0.266,0.273,0.2864,0.284,0.2711,0.2635,0.2471,0.2297,0.2361,0.2685,0.2719,0.2752,0.2663,0.2427,0.2427,0.1802,0.1798,0.1795]},{"header":{"parameterUnit":"m.s-1","parameterCategory":2,"la1":30.2991,"la2":30.254,"lo1":-89.0895,"lo2":-89.0444,"dy":0.0017,"dx":0.0017,"nx":28,"ny":28,"refTime":"2024-05-25T03:00:00:Z","depth":"0","parameterNumber":3,"parameterNumberName":"V-component_of_CURRENTS"},"data":[0,0,0,0,0,0,0,0,0,0,0,0,0,0,0,0,0,0,0,0,0,0,0,0,0,0,0,0,0,0,0,0,0,0,0,0,0,0,0,0,0,0,0,0,0,0,0,0,0,0,0,0,0,0,0,0,0,0,0.034,0.0339,0,0.0311,0.0311,0.0311,0.0288,0.0288,0.0288,0.0288,0.0244,0.0243,0.0242,0,0,0,0,0,0,0,0,0,0,0,0,0,0.0334,0.0334,0.034,0.0339,0.0339,0.0311,0.0311,0.031,0.0288,0.0288,0.0288,0.0288,0.0244,0.0243,0.0242,0,0,0,0,0,0,0,0,0,0,0,0,0,0.0323,0.0334,0.034,0.0325,0.0324,0.0311,0.0311,0.031,0.0288,0.0288,0.0288,0.0287,0.0244,0.0243,0.0241,0.0236,0,0,0.0237,0.0236,0,0,0,0,0,0,0,0,0.0324,0.0323,0.0328,0.0326,0.0325,0.0304,0.0293,0.0285,0.0288,0.0301,0.0288,0.0287,0.0263,0.026,0.0254,0.0234,0.0232,0.0236,0.0236,0.0235,0.0234,0,0,0,0,0,0,0,0.0325,0.0324,0.0327,0.0327,0.0325,0.0306,0.0305,0.0291,0.0282,0.03,0.0298,0.0296,0.0262,0.0256,0.0253,0.0231,0.0236,0.0235,0.0234,0.0234,0.0211,0.0212,0,0,0,0,0,0,0.0332,0.0325,0.0328,0.0327,0.0325,0.0307,0.0305,0.031,0.0283,0.0279,0.0297,0.0296,0.0258,0.0255,0.0251,0.0262,0.0235,0.0233,0.0232,0.0211,0.0211,0.0212,0,0,0,0,0,0,0.0333,0.0333,0.0329,0.0325,0.0324,0.0308,0.0313,0.0309,0.0307,0.0281,0.0276,0.0298,0.0258,0.0253,0.025,0.026,0.0233,0.0231,0.0211,0.0211,0.0212,0.0272,0,0,0,0,0,0,0.0333,0.0334,0.0339,0.0326,0.0324,0.0331,0.0313,0.0309,0.0306,0.0305,0.028,0.0276,0.0258,0.0252,0.0248,0.0257,0.023,0.021,0.0211,0.0211,0.0269,0.0274,0.0279,0,0,0,0,0,0.0333,0.0344,0.0339,0.0339,0.0332,0.0331,0.0329,0.0315,0.0307,0.0311,0.0297,0.0277,0.0253,0.0252,0.0247,0.0255,0.021,0.0211,0.0211,0.0267,0.0273,0.0279,0,0,0,0,0,0,0.0344,0.0343,0.0337,0.0348,0.0343,0.0328,0.0331,0.032,0.0312,0.0309,0.0285,0.028,0.0278,0.0258,0.0257,0.0249,0.0226,0.0226,0.0271,0.0276,0.0281,0.0299,0.0229,0,0,0,0,0,0.0349,0.0359,0.0351,0.036,0.036,0.0346,0.0343,0.0334,0.0325,0.0321,0.0304,0.0286,0.0276,0.0271,0.0255,0.0255,0.0234,0.0255,0.026,0.0264,0.0275,0.0258,0.0262,0.0214,0.0214,0.0214,0,0,0.0355,0.0357,0.0361,0.0363,0.0358,0.0369,0.0344,0.0345,0.0357,0.0317,0.0327,0.0302,0.0279,0.0279,0.0276,0.0265,0.0264,0.0265,0.0269,0.0277,0.0259,0.0264,0.0268,0.0215,0.0215,0.0215,0,0,0.0378,0.0376,0.0393,0.0394,0.0392,0.0386,0.039,0.0378,0.0376,0.038,0.0354,0.0339,0.0324,0.0309,0.0301,0.0321,0.0288,0.0311,0.0353,0.0337,0.0341,0.0344,0.0316,0.0316,0.0316,0.0316,0.0316,0,0.0384,0.0409,0.0397,0.0414,0.0424,0.0399,0.0423,0.0418,0.0406,0.0411,0.0393,0.0371,0.0341,0.0348,0.035,0.0332,0.0315,0.0336,0.0344,0.0347,0.0349,0.0319,0.0319,0.0319,0.0318,0.0318,0.0318,0,0.0423,0.0441,0.0452,0.0471,0.0478,0.0492,0.0488,0.0492,0.0484,0.0474,0.0476,0.0438,0.0427,0.0409,0.0385,0.039,0.0368,0.0351,0.0333,0.0358,0.0324,0.0323,0.0323,0.0322,0.0321,0.032,0,0,0.0446,0.0474,0.048,0.0506,0.0511,0.0527,0.0548,0.0563,0.0588,0.0559,0.0589,0.0546,0.0518,0.0506,0.0469,0.0448,0.0435,0.0411,0.0409,0.039,0.0394,0.0379,0.0375,0.0423,0.0423,0.0423,0.0361,0,0.0483,0.0535,0.0537,0.0591,0.062,0.0613,0.0642,0.0649,0.0645,0.0663,0.0621,0.0627,0.0559,0.056,0.0526,0.0468,0.0436,0.0453,0.0368,0.0365,0.0355,0.0375,0.0412,0.036,0.0359,0.0359,0.0359,0,0.0526,0.0558,0.0617,0.0669,0.0682,0.0711,0.0759,0.0781,0.0786,0.0784,0.077,0.0736,0.0706,0.0646,0.0553,0.0571,0.0486,0.0429,0.0425,0.0392,0.0348,0.0336,0.0357,0.0268,0.0356,0.0356,0.0356,0,0.0566,0.0619,0.0675,0.069,0.0738,0.0772,0.08,0.0818,0.0858,0.0866,0.0896,0.0836,0.0836,0.0727,0.06,0.058,0.0498,0.0454,0.0355,0.0352,0.0357,0.0355,0.0291,0.0381,0.0381,0.0381,0.0381,0,0.0611,0.0656,0.0703,0.0735,0.0813,0.0827,0.0906,0.0921,0.0964,0.1037,0.0966,0.1017,0.086,0.0794,0.0646,0.0509,0.053,0.037,0.0342,0.0377,0.0378,0.0279,0.0204,0.0379,0.0379,0.038,0.038,0,0.0647,0.0673,0.0744,0.0808,0.0835,0.0894,0.0984,0.1044,0.1072,0.117,0.1186,0.1159,0.108,0.0905,0.074,0.0591,0.0385,0.0382,0.0428,0.0407,0.0221,0.0148,0.0036,-0.0013,0.0261,0.0261,0.026,0,0.067,0.071,0.0799,0.085,0.0885,0.0971,0.104,0.1093,0.117,0.1276,0.134,0.1299,0.1302,0.1042,0.0773,0.0514,0.0384,0.0358,0.0317,0.0227,0.0124,0.0078,0.0042,0.0338,0.0339,0.0339,0.0339,0,0.0716,0.0747,0.0806,0.0912,0.0995,0.1093,0.1199,0.1281,0.1377,0.1486,0.1613,0.1629,0.1394,0.1174,0.0807,0.0611,0.0304,0.0351,0.0255,0.0181,0.013,0.0067,0.035,0.034,0.034,0.034,0.034,0.034,0.075,0.0799,0.0881,0.0982,0.1078,0.1211,0.1318,0.1463,0.163,0.1817,0.1807,0.1875,0.1542,0.106,0.0781,0.0328,0.0302,0.0199,0.0116,0.0078,0.004,0.032,0.0281,0.0281,0.028,0.028,0.028,0,0.0791,0.085,0.0946,0.1072,0.1182,0.1232,0.1423,0.1565,0.1803,0.1962,0.2079,0.1962,0.1545,0.109,0.047,0.0163,0.0052,0.0004,-0.0044,-0.0073,0.0185,0.02,0.0147,0.0147,0.0147,0.0147,0.0148,0.0148,0.0814,0.0904,0.0954,0.1133,0.1229,0.1406,0.1528,0.177,0.1936,0.2168,0.2228,0.2222,0.1927,0.0834,0.0144,-0.0039,-0.0232,-0.0271,-0.038,-0.0192,-0.018,-0.0167,-0.0167,-0.0297,-0.0298,-0.0566,-0.0569,-0.0571]}],[{"header":{"parameterUnit":"m.s-1","parameterCategory":2,"la1":30.2991,"la2":30.254,"lo1":-89.0895,"lo2":-89.0444,"dy":0.0017,"dx":0.0017,"nx":28,"ny":28,"refTime":"2024-05-25T03:00:00:Z","depth":"2","parameterNumber":2,"parameterNumberName":"U-component_of_CURRENTS"},"data":[0,0,0,0,0,0,0,0,0,0,0,0,0,0,0,0,0,0,0,0,0,0,0,0,0,0,0,0,0,0,0,0,0,0,0,0,0,0,0,0,0,0,0,0,0,0,0,0,0,0,0,0,0,0,0,0,0,0,0.2717,0.2717,0,0.2716,0.2716,0.2716,0.2707,0.2707,0.2707,0.2707,0.2704,0.2704,0.2703,0,0,0,0,0,0,0,0,0,0,0,0,0,0.2723,0.2723,0.2717,0.2717,0.2718,0.2716,0.2716,0.2716,0.2707,0.2707,0.2707,0.2707,0.2704,0.2704,0.2703,0,0,0,0,0,0,0,0,0,0,0,0,0,0.272,0.2723,0.2717,0.2714,0.2714,0.2717,0.2716,0.2716,0.2708,0.2707,0.2707,0.2707,0.2704,0.2704,0.2703,0.2705,0,0,0.2703,0.2703,0,0,0,0,0,0,0,0,0.272,0.2719,0.2715,0.2715,0.2715,0.2713,0.2717,0.2713,0.2708,0.2708,0.2707,0.2707,0.2708,0.2707,0.2705,0.2705,0.2705,0.2703,0.2703,0.2703,0.2703,0,0,0,0,0,0,0,0.272,0.2719,0.2715,0.2715,0.2715,0.2717,0.2716,0.2716,0.2707,0.2708,0.2708,0.2711,0.2707,0.2705,0.2705,0.2705,0.2703,0.2703,0.2703,0.2703,0.2764,0.2766,0,0,0,0,0,0,0.2723,0.2719,0.2715,0.2715,0.2719,0.2717,0.2716,0.2713,0.2707,0.2707,0.2711,0.271,0.2705,0.2705,0.2705,0.2758,0.2703,0.2703,0.2703,0.2762,0.2764,0.2766,0,0,0,0,0,0,0.2723,0.2722,0.2715,0.2719,0.2719,0.2717,0.2713,0.2713,0.2723,0.271,0.2709,0.2724,0.2705,0.2705,0.2722,0.2756,0.2703,0.2703,0.276,0.2763,0.2765,0.2832,0,0,0,0,0,0,0.2723,0.2722,0.2726,0.2719,0.2719,0.2729,0.2714,0.2713,0.2725,0.2724,0.272,0.2719,0.2705,0.2723,0.2722,0.2755,0.2703,0.2758,0.2762,0.2765,0.2827,0.2836,0.2843,0,0,0,0,0,0.2723,0.2728,0.2726,0.2727,0.2722,0.273,0.273,0.2728,0.2726,0.2736,0.2736,0.272,0.2742,0.2724,0.2723,0.2756,0.2757,0.2761,0.2764,0.2824,0.2834,0.2843,0,0,0,0,0,0,0.2731,0.2727,0.2726,0.2728,0.2736,0.2729,0.2739,0.2738,0.2746,0.2749,0.2735,0.2734,0.2764,0.2752,0.2732,0.2785,0.275,0.2753,0.2795,0.2805,0.2813,0.2807,0.2703,0,0,0,0,0,0.2735,0.2738,0.2738,0.2742,0.2748,0.2747,0.2753,0.2753,0.2756,0.2759,0.2755,0.276,0.2777,0.2784,0.2788,0.2813,0.2821,0.2837,0.2845,0.2852,0.2848,0.291,0.2924,0.2778,0.2778,0.2778,0,0,0.2736,0.2739,0.2738,0.2745,0.2749,0.2761,0.275,0.2764,0.2779,0.2758,0.2778,0.2786,0.279,0.2821,0.2834,0.2816,0.2898,0.2857,0.2862,0.2854,0.2916,0.293,0.2942,0.2781,0.2781,0.278,0,0,0.2741,0.2748,0.2751,0.2762,0.2776,0.2781,0.279,0.2794,0.2803,0.2827,0.2822,0.285,0.2864,0.2876,0.2885,0.2941,0.2939,0.295,0.2985,0.3047,0.3059,0.307,0.3099,0.3113,0.2954,0.2954,0.2954,0,0.2746,0.2749,0.2756,0.2768,0.2782,0.2793,0.2807,0.2821,0.2831,0.285,0.2844,0.2895,0.2892,0.2943,0.296,0.296,0.2985,0.2947,0.3058,0.3069,0.3079,0.3106,0.312,0.2958,0.2958,0.2957,0.2957,0,0.2752,0.2762,0.277,0.2788,0.2806,0.2824,0.2845,0.2869,0.2888,0.2904,0.2959,0.2967,0.3001,0.3011,0.3,0.3074,0.3066,0.3062,0.3033,0.3098,0.3122,0.3135,0.2963,0.2962,0.2961,0.296,0,0,0.2734,0.2767,0.2768,0.2781,0.2821,0.283,0.2877,0.2918,0.2953,0.2984,0.3037,0.307,0.3085,0.3096,0.3099,0.3141,0.3229,0.3133,0.3134,0.3159,0.3355,0.3279,0.3285,0.3256,0.3259,0.3261,0.3343,0,0.2736,0.2754,0.2779,0.2806,0.2817,0.2862,0.2901,0.2945,0.299,0.3046,0.3089,0.3137,0.3118,0.3146,0.3191,0.3223,0.3266,0.3205,0.3289,0.329,0.3214,0.3299,0.3008,0.3051,0.3356,0.3358,0.3359,0,0.2724,0.2741,0.2765,0.2812,0.2823,0.2853,0.2927,0.2966,0.3057,0.3097,0.3169,0.3203,0.3277,0.325,0.3351,0.3319,0.3341,0.3357,0.3361,0.3272,0.3238,0.3035,0.3063,0.3381,0.3379,0.3377,0.3376,0,0.2686,0.2727,0.2747,0.2762,0.2822,0.2858,0.2902,0.2985,0.3028,0.3142,0.3197,0.3285,0.3345,0.34,0.3439,0.3413,0.3542,0.3512,0.3459,0.3453,0.3208,0.3176,0.3583,0.3583,0.3583,0.3583,0.3583,0,0.2667,0.2679,0.2732,0.2741,0.2777,0.2836,0.2895,0.2957,0.3058,0.3125,0.3222,0.3291,0.3391,0.3472,0.3487,0.352,0.3592,0.3477,0.3481,0.3223,0.3192,0.3473,0.3459,0.3586,0.3585,0.3585,0.3584,0,0.2615,0.265,0.2671,0.2736,0.2757,0.2785,0.2876,0.2921,0.3032,0.3132,0.3177,0.3326,0.3439,0.3514,0.3612,0.3578,0.3614,0.3602,0.3278,0.3242,0.3466,0.3454,0.3551,0.355,0.3548,0.3547,0.3546,0,0.2588,0.2594,0.2649,0.2662,0.2694,0.2746,0.2784,0.2893,0.2948,0.314,0.3184,0.3344,0.342,0.3537,0.3521,0.3545,0.3614,0.3272,0.316,0.3474,0.3469,0.346,0.3451,0.2861,0.2854,0.2849,0.2845,0,0.2538,0.2563,0.258,0.2605,0.264,0.2671,0.2741,0.277,0.2917,0.3004,0.313,0.3214,0.3347,0.3246,0.329,0.3255,0.3244,0.3163,0.3602,0.2917,0.2831,0.2823,0.2835,0.2797,0.2802,0.2805,0.2808,0.281,0.2499,0.2495,0.252,0.2533,0.2565,0.2578,0.257,0.2645,0.2701,0.2798,0.2972,0.3002,0.3047,0.2967,0.2878,0.2799,0.3025,0.286,0.2873,0.2893,0.2802,0.2718,0.2644,0.2648,0.2651,0.2654,0.2657,0,0.243,0.2434,0.2445,0.2443,0.2427,0.2488,0.252,0.2477,0.2479,0.2611,0.269,0.2505,0.2441,0.2483,0.2291,0.2283,0.2226,0.2176,0.207,0.2121,0.2165,0.2032,0.1673,0.167,0.1667,0.1664,0,0,0.2396,0.2367,0.2363,0.2297,0.2301,0.2246,0.2237,0.2193,0.2224,0.2189,0.219,0.2392,0.2447,0.2057,0.1988,0.1799,0.1946,0.172,0.2515,0.2445,0.2485,0.2572,0.2427,0,0,0,0,0]},{"header":{"parameterUnit":"m.s-1","parameterCategory":2,"la1":30.2991,"la2":30.254,"lo1":-89.0895,"lo2":-89.0444,"dy":0.0017,"dx":0.0017,"nx":28,"ny":28,"refTime":"2024-05-25T03:00:00:Z","depth":"2","parameterNumber":3,"parameterNumberName":"V-component_of_CURRENTS"},"data":[0,0,0,0,0,0,0,0,0,0,0,0,0,0,0,0,0,0,0,0,0,0,0,0,0,0,0,0,0,0,0,0,0,0,0,0,0,0,0,0,0,0,0,0,0,0,0,0,0,0,0,0,0,0,0,0,0,0,0.0196,0.0196,0,0.0168,0.0168,0.0167,0.0149,0.0149,0.0149,0.0149,0.0107,0.0106,0.0105,0,0,0,0,0,0,0,0,0,0,0,0,0,0.0194,0.0194,0.0196,0.0196,0.0195,0.0168,0.0168,0.0167,0.0149,0.0149,0.0149,0.0149,0.0107,0.0106,0.0105,0,0,0,0,0,0,0,0,0,0,0,0,0,0.0182,0.0194,0.0196,0.0184,0.0182,0.0168,0.0168,0.0167,0.0149,0.0149,0.0149,0.0149,0.0108,0.0106,0.0105,0.0097,0,0,0.01,0.0099,0,0,0,0,0,0,0,0,0.0183,0.0183,0.0186,0.0184,0.0183,0.0163,0.0152,0.0143,0.0149,0.0161,0.0149,0.0148,0.0125,0.0122,0.0116,0.0095,0.0093,0.01,0.0099,0.0098,0.0098,0,0,0,0,0,0,0,0.0184,0.0183,0.0184,0.0185,0.0184,0.0166,0.0164,0.015,0.0143,0.016,0.0158,0.0157,0.0124,0.0118,0.0115,0.0092,0.01,0.0098,0.0097,0.0097,0.0075,0.0076,0,0,0,0,0,0,0.0191,0.0184,0.0185,0.0183,0.0184,0.0166,0.0164,0.0168,0.0143,0.014,0.0157,0.0156,0.012,0.0117,0.0113,0.0125,0.0098,0.0097,0.0096,0.0075,0.0076,0.0076,0,0,0,0,0,0,0.0191,0.0192,0.0186,0.0183,0.0182,0.0167,0.0171,0.0168,0.0167,0.0141,0.0137,0.0159,0.012,0.0116,0.0112,0.0122,0.0096,0.0095,0.0075,0.0075,0.0076,0.0133,0,0,0,0,0,0,0.0192,0.0192,0.0197,0.0184,0.0182,0.0187,0.0171,0.0168,0.0166,0.0165,0.0142,0.0138,0.012,0.0115,0.0111,0.0119,0.0093,0.0074,0.0075,0.0076,0.013,0.0135,0.0139,0,0,0,0,0,0.0192,0.0203,0.0198,0.0198,0.019,0.0188,0.0185,0.0173,0.0166,0.0171,0.0158,0.0139,0.0116,0.0114,0.0109,0.0118,0.0074,0.0075,0.0075,0.0128,0.0134,0.0139,0,0,0,0,0,0,0.0204,0.0201,0.0196,0.0205,0.02,0.0185,0.0188,0.0179,0.0171,0.017,0.0146,0.0142,0.014,0.0121,0.012,0.0113,0.009,0.009,0.0132,0.0138,0.0142,0.016,0.0092,0,0,0,0,0,0.021,0.0218,0.0209,0.0218,0.0217,0.0203,0.0201,0.0193,0.0184,0.0181,0.0165,0.0149,0.0139,0.0133,0.0118,0.0117,0.0097,0.0118,0.0122,0.0126,0.0137,0.0118,0.0122,0.0079,0.0079,0.0079,0,0,0.0216,0.0216,0.022,0.0221,0.0216,0.0226,0.0202,0.0203,0.0215,0.0177,0.0187,0.0164,0.0142,0.0141,0.0138,0.0128,0.0126,0.0127,0.0131,0.014,0.0119,0.0124,0.0127,0.0079,0.0079,0.0079,0,0,0.0238,0.0235,0.0251,0.0251,0.0249,0.0242,0.0247,0.0235,0.0235,0.0239,0.0214,0.0201,0.0186,0.0172,0.0163,0.0183,0.015,0.0174,0.0213,0.0195,0.0198,0.0201,0.0176,0.0176,0.0177,0.0177,0.0177,0,0.0245,0.0267,0.0254,0.027,0.0279,0.0256,0.0278,0.0273,0.0262,0.0267,0.0251,0.023,0.0203,0.0208,0.0211,0.0194,0.0176,0.0196,0.0201,0.0204,0.0206,0.0179,0.0179,0.018,0.018,0.0179,0.0179,0,0.028,0.0297,0.0307,0.0324,0.033,0.0343,0.0338,0.0343,0.0337,0.0327,0.0329,0.0294,0.0284,0.0267,0.0245,0.0248,0.0228,0.0209,0.0191,0.0214,0.0184,0.0182,0.0184,0.0183,0.0182,0.0182,0,0,0.0305,0.0328,0.0334,0.0357,0.0362,0.0376,0.0395,0.0409,0.0431,0.0406,0.0433,0.0395,0.0369,0.0358,0.0323,0.0301,0.0288,0.0266,0.0263,0.0246,0.0245,0.023,0.0226,0.0273,0.0273,0.0273,0.0216,0,0.034,0.0386,0.0387,0.0437,0.0463,0.0456,0.0483,0.0489,0.0485,0.0501,0.0461,0.0468,0.0407,0.0408,0.0375,0.0318,0.0288,0.0305,0.0221,0.0218,0.0206,0.0225,0.0239,0.019,0.0215,0.0214,0.0214,0,0.038,0.0409,0.0463,0.051,0.0522,0.0549,0.0593,0.0613,0.0616,0.0614,0.06,0.0568,0.0539,0.0486,0.0395,0.0411,0.0334,0.0279,0.0275,0.0243,0.0201,0.0171,0.0186,0.0211,0.0211,0.0212,0.0212,0,0.0419,0.0467,0.0518,0.0532,0.0574,0.0608,0.0634,0.0649,0.0686,0.0691,0.0717,0.066,0.0657,0.0556,0.0435,0.0419,0.0334,0.0295,0.0205,0.0202,0.0189,0.0185,0.0228,0.0228,0.0229,0.0229,0.0229,0,0.0462,0.0504,0.0546,0.0576,0.0649,0.0661,0.0736,0.0749,0.0787,0.0851,0.0784,0.0824,0.0676,0.0609,0.0476,0.0345,0.0362,0.022,0.0193,0.0207,0.0206,0.0205,0.0203,0.0227,0.0227,0.0227,0.0228,0,0.0498,0.052,0.0586,0.0645,0.067,0.0727,0.0811,0.0867,0.089,0.0976,0.099,0.0952,0.0871,0.0709,0.0551,0.0414,0.0278,0.0223,0.0247,0.0224,0.0143,0.0145,0.0116,0.0115,0.0115,0.0114,0.0113,0,0.0521,0.0558,0.064,0.0689,0.0722,0.0804,0.0869,0.0917,0.0986,0.1068,0.1123,0.1074,0.1063,0.0816,0.0571,0.0338,0.0293,0.0177,0.0141,0.0159,0.0134,0.0137,0.014,0.0137,0.0137,0.0137,0.0137,0,0.0566,0.0595,0.065,0.075,0.0829,0.092,0.1019,0.1091,0.1172,0.1256,0.135,0.1352,0.1132,0.0908,0.0577,0.0407,0.0213,0.0164,0.0187,0.0168,0.0175,0.0153,0.0155,0.0135,0.0135,0.0135,0.0135,0.0135,0.0602,0.0647,0.0723,0.0819,0.0911,0.103,0.1124,0.1242,0.1378,0.1514,0.1509,0.1516,0.1247,0.0836,0.0539,0.0211,0.0231,0.0094,0.0096,0.0098,0.0115,0.0121,0.0073,0.0073,0.0073,0.0073,0.0073,0,0.0643,0.0697,0.0787,0.0903,0.1007,0.1055,0.1221,0.1322,0.1501,0.1618,0.17,0.1451,0.1198,0.0873,0.0404,0.0128,0.0095,0.0015,0.0039,0.0044,0.0047,0.0062,0.0005,0.0004,0.0003,0.0002,0,0,0.0666,0.0748,0.0793,0.0959,0.105,0.1205,0.1309,0.1471,0.1587,0.1702,0.1716,0.1692,0.1308,0.095,0.0569,0.0292,0.0226,0.0223,0.0309,0.0388,0.0395,0.0125,0.0157,0,0,0,0,0]}],[{"header":{"parameterUnit":"m.s-1","parameterCategory":2,"la1":30.2991,"la2":30.254,"lo1":-89.0895,"lo2":-89.0444,"dy":0.0017,"dx":0.0017,"nx":28,"ny":28,"refTime":"2024-05-25T03:00:00:Z","depth":"4","parameterNumber":2,"parameterNumberName":"U-component_of_CURRENTS"},"data":[0,0,0,0,0,0,0,0,0,0,0,0,0,0,0,0,0,0,0,0,0,0,0,0,0,0,0,0,0,0,0,0,0,0,0,0,0,0,0,0,0,0,0,0,0,0,0,0,0,0,0,0,0,0,0,0,0,0,0.1767,0.1768,0,0.1807,0.1807,0.1807,0.1855,0.1856,0.1857,0.1858,0.1918,0.1919,0.1919,0,0,0,0,0,0,0,0,0,0,0,0,0,0.1727,0.1728,0.1767,0.1768,0.1769,0.1807,0.1807,0.1807,0.1855,0.1856,0.1857,0.1858,0.1918,0.1919,0.1919,0,0,0,0,0,0,0,0,0,0,0,0,0,0.1752,0.1728,0.1767,0.1799,0.1802,0.1806,0.1807,0.1807,0.1855,0.1856,0.1858,0.1859,0.1917,0.1918,0.192,0.1898,0,0,0.1923,0.1923,0,0,0,0,0,0,0,0,0.175,0.1753,0.1793,0.1796,0.18,0.1829,0.1815,0.1839,0.1854,0.1833,0.1858,0.186,0.189,0.1894,0.1895,0.1901,0.1904,0.1923,0.1924,0.1924,0.1924,0,0,0,0,0,0,0,0.1748,0.1751,0.1781,0.1794,0.1798,0.1809,0.1813,0.1819,0.1852,0.1835,0.1839,0.1846,0.1892,0.1894,0.1897,0.1904,0.1923,0.1924,0.1925,0.1925,0.2014,0.2016,0,0,0,0,0,0,0.1746,0.175,0.178,0.1782,0.178,0.1808,0.1814,0.1817,0.1852,0.1859,0.1844,0.1848,0.1891,0.1895,0.1899,0.1984,0.1924,0.1925,0.1926,0.2013,0.2015,0.2017,0,0,0,0,0,0,0.1745,0.1748,0.1778,0.1769,0.1774,0.1808,0.1811,0.1817,0.186,0.1859,0.1867,0.1886,0.1892,0.1898,0.1943,0.1983,0.1926,0.1927,0.2011,0.2013,0.2016,0.2084,0,0,0,0,0,0,0.1744,0.1747,0.1769,0.1768,0.1774,0.1806,0.181,0.1817,0.186,0.1866,0.1896,0.1901,0.1894,0.1941,0.1944,0.1983,0.1927,0.2009,0.2012,0.2015,0.208,0.2089,0.2097,0,0,0,0,0,0.1742,0.1757,0.1769,0.1774,0.1795,0.1808,0.1812,0.1839,0.1861,0.1883,0.191,0.1902,0.1964,0.1944,0.1946,0.1987,0.2007,0.2011,0.2015,0.2076,0.2087,0.2096,0,0,0,0,0,0,0.1754,0.1764,0.1777,0.1797,0.1815,0.1817,0.1846,0.1861,0.1898,0.1918,0.192,0.1926,0.198,0.1974,0.1951,0.2023,0.1986,0.199,0.2032,0.2042,0.205,0.2042,0.1928,0,0,0,0,0,0.1764,0.1782,0.1791,0.1813,0.1825,0.1844,0.1862,0.1879,0.19,0.192,0.1941,0.1966,0.1989,0.2011,0.2024,0.206,0.2064,0.209,0.2098,0.2106,0.2101,0.2155,0.2168,0.2029,0.2029,0.2029,0,0,0.1775,0.1786,0.1798,0.1819,0.1837,0.1855,0.1859,0.1895,0.1921,0.1919,0.1977,0.1997,0.2006,0.205,0.2074,0.2056,0.2148,0.211,0.2116,0.2108,0.2161,0.2174,0.2186,0.2032,0.2032,0.2031,0,0,0.179,0.1818,0.1833,0.1851,0.1884,0.1893,0.1913,0.1937,0.1967,0.2014,0.2024,0.2069,0.2105,0.2117,0.2127,0.2189,0.219,0.2205,0.2244,0.2297,0.2309,0.2319,0.2344,0.2356,0.2212,0.2212,0.2212,0,0.181,0.1823,0.1843,0.186,0.1883,0.1914,0.1936,0.1963,0.2004,0.2033,0.2048,0.2123,0.2133,0.2182,0.2205,0.2208,0.2233,0.2205,0.2308,0.2318,0.2328,0.2351,0.2363,0.2216,0.2215,0.2215,0.2214,0,0.1819,0.1848,0.1863,0.1894,0.1921,0.1949,0.1981,0.2025,0.2072,0.2097,0.2174,0.2196,0.2243,0.2258,0.2251,0.2325,0.2319,0.2312,0.2281,0.2346,0.2366,0.2378,0.2221,0.222,0.2219,0.2218,0,0,0.181,0.1859,0.1868,0.189,0.1944,0.1959,0.202,0.207,0.2118,0.2178,0.2243,0.229,0.2322,0.2334,0.2345,0.2384,0.2471,0.2384,0.2385,0.2405,0.2585,0.2411,0.2407,0.2497,0.25,0.2502,0.2574,0,0.1816,0.1848,0.1878,0.1923,0.1941,0.1998,0.2045,0.2103,0.2165,0.2235,0.2287,0.2353,0.2347,0.239,0.2432,0.2463,0.2506,0.2451,0.2521,0.2522,0.2358,0.2415,0.2509,0.2582,0.2585,0.2586,0.2588,0,0.1804,0.183,0.1872,0.1934,0.1951,0.1995,0.2085,0.2133,0.2234,0.2286,0.237,0.2416,0.2493,0.2481,0.2575,0.255,0.2576,0.259,0.2593,0.241,0.2369,0.2504,0.2608,0.2607,0.2605,0.2604,0.2603,0,0.1762,0.1823,0.186,0.1882,0.1958,0.2009,0.2066,0.2161,0.2211,0.2337,0.2392,0.249,0.2557,0.2612,0.2656,0.2637,0.2746,0.2722,0.2585,0.2573,0.2678,0.2666,0.279,0.279,0.2789,0.2789,0.2789,0,0.173,0.1764,0.1853,0.1871,0.1928,0.1999,0.2078,0.2148,0.2258,0.2315,0.2426,0.2481,0.2601,0.2674,0.2694,0.2671,0.2788,0.2591,0.2582,0.2705,0.2696,0.2686,0.2673,0.2792,0.2791,0.2791,0.279,0,0.1668,0.1727,0.1774,0.1872,0.1908,0.1956,0.2074,0.2121,0.224,0.2325,0.2374,0.2513,0.26,0.2686,0.2779,0.27,0.2706,0.2673,0.28,0.2798,0.2486,0.2476,0.251,0.2504,0.2499,0.2496,0.2492,0,0.1632,0.1652,0.1762,0.1793,0.1847,0.1928,0.1978,0.2103,0.2148,0.2314,0.2337,0.2484,0.2557,0.2544,0.2647,0.2673,0.2643,0.2616,0.2533,0.247,0.246,0.2457,0.2453,0.2485,0.2484,0.2482,0.2481,0,0.1563,0.1624,0.1663,0.1727,0.179,0.1832,0.1917,0.1929,0.2067,0.2202,0.2243,0.2287,0.2379,0.244,0.2486,0.2497,0.2611,0.2567,0.2575,0.2497,0.2441,0.2434,0.2436,0.2465,0.2467,0.2469,0.247,0,0.1522,0.1531,0.1595,0.1635,0.1705,0.1706,0.176,0.1805,0.1863,0.2041,0.2059,0.2209,0.2359,0.2351,0.2393,0.2391,0.2344,0.2242,0.2267,0.2286,0.2177,0.2071,0.1975,0,0,0,0,0,0.1463,0.1457,0.1491,0.1513,0.1576,0.1613,0.1701,0.1756,0.1891,0.1867,0.1951,0.2025,0.2077,0.216,0.2115,0.2292,0.2355,0.2226,0.2251,0.2376,0.2394,0.2286,0,0,0,0,0,0,0.1422,0.1452,0.145,0.1405,0.1402,0.1443,0.1492,0.1581,0.1568,0.1725,0.1773,0.1895,0.1991,0.2096,0.208,0.2103,0.207,0.2328,0.2322,0.2365,0.2382,0.2397,0.2292,0,0,0,0,0]},{"header":{"parameterUnit":"m.s-1","parameterCategory":2,"la1":30.2991,"la2":30.254,"lo1":-89.0895,"lo2":-89.0444,"dy":0.0017,"dx":0.0017,"nx":28,"ny":28,"refTime":"2024-05-25T03:00:00:Z","depth":"4","parameterNumber":3,"parameterNumberName":"V-component_of_CURRENTS"},"data":[0,0,0,0,0,0,0,0,0,0,0,0,0,0,0,0,0,0,0,0,0,0,0,0,0,0,0,0,0,0,0,0,0,0,0,0,0,0,0,0,0,0,0,0,0,0,0,0,0,0,0,0,0,0,0,0,0,0,0.0095,0.0095,0,0.0077,0.0076,0.0076,0.0064,0.0064,0.0064,0.0064,0.0033,0.0032,0.0031,0,0,0,0,0,0,0,0,0,0,0,0,0,0.0093,0.0093,0.0095,0.0095,0.0095,0.0077,0.0076,0.0076,0.0064,0.0064,0.0064,0.0063,0.0033,0.0032,0.0031,0,0,0,0,0,0,0,0,0,0,0,0,0,0.0086,0.0093,0.0095,0.0087,0.0086,0.0077,0.0076,0.0076,0.0064,0.0064,0.0064,0.0063,0.0033,0.0032,0.0031,0.0025,0,0,0.0027,0.0027,0,0,0,0,0,0,0,0,0.0086,0.0086,0.0088,0.0087,0.0086,0.0073,0.0064,0.0059,0.0064,0.0072,0.0064,0.0063,0.0045,0.0043,0.0039,0.0024,0.0022,0.0027,0.0027,0.0026,0.0026,0,0,0,0,0,0,0,0.0087,0.0086,0.0087,0.0088,0.0087,0.0075,0.0074,0.0063,0.0059,0.0071,0.007,0.0069,0.0045,0.004,0.0038,0.0022,0.0027,0.0026,0.0026,0.0025,0.0011,0.0012,0,0,0,0,0,0,0.0091,0.0087,0.0088,0.0087,0.0087,0.0075,0.0074,0.0077,0.0059,0.0056,0.0069,0.0068,0.0043,0.004,0.0037,0.0049,0.0026,0.0025,0.0024,0.0011,0.0011,0.0012,0,0,0,0,0,0,0.0092,0.0092,0.0089,0.0086,0.0085,0.0075,0.0079,0.0077,0.0077,0.0057,0.0055,0.0072,0.0042,0.0039,0.0038,0.0047,0.0024,0.0023,0.0011,0.0011,0.0012,0.0059,0,0,0,0,0,0,0.0092,0.0092,0.0097,0.0087,0.0086,0.0091,0.0079,0.0076,0.0076,0.0075,0.0059,0.0056,0.0042,0.004,0.0037,0.0045,0.0022,0.001,0.0011,0.0012,0.0057,0.0061,0.0065,0,0,0,0,0,0.0092,0.01,0.0097,0.0097,0.0092,0.0091,0.009,0.0081,0.0076,0.0081,0.0072,0.0057,0.0041,0.004,0.0036,0.0044,0.001,0.0011,0.0011,0.0056,0.0061,0.0065,0,0,0,0,0,0,0.0101,0.0099,0.0096,0.0103,0.01,0.0089,0.0092,0.0086,0.0082,0.0081,0.0063,0.006,0.0061,0.0045,0.0044,0.0041,0.0022,0.0022,0.0057,0.0061,0.0065,0.0078,0.0022,0,0,0,0,0,0.0106,0.0112,0.0106,0.0113,0.0113,0.0104,0.0102,0.0097,0.0091,0.0089,0.0078,0.0066,0.006,0.0056,0.0046,0.0046,0.0028,0.0047,0.0051,0.0054,0.0062,0.0044,0.0047,0.0014,0.0014,0.0014,0,0,0.0111,0.0111,0.0115,0.0116,0.0113,0.0121,0.0103,0.0105,0.0115,0.0086,0.0096,0.008,0.0063,0.0065,0.0063,0.0054,0.0053,0.0055,0.0058,0.0065,0.0045,0.0048,0.0051,0.0015,0.0015,0.0015,0,0,0.0128,0.0126,0.0138,0.014,0.0139,0.0135,0.0138,0.0131,0.0132,0.0137,0.0119,0.0111,0.0101,0.0091,0.0085,0.0103,0.0074,0.0095,0.0126,0.0109,0.0111,0.0113,0.0093,0.0093,0.0097,0.0098,0.0098,0,0.0134,0.015,0.0141,0.0154,0.0162,0.0145,0.0163,0.0161,0.0155,0.0159,0.0148,0.0135,0.0116,0.0122,0.0125,0.0112,0.0096,0.0112,0.0114,0.0116,0.0117,0.0095,0.0095,0.01,0.01,0.0099,0.0099,0,0.016,0.0174,0.0182,0.0196,0.0202,0.0214,0.0212,0.0218,0.0215,0.0208,0.0213,0.0189,0.0182,0.017,0.0154,0.0155,0.0138,0.0122,0.0105,0.0124,0.0099,0.0098,0.0103,0.0102,0.0102,0.0101,0,0,0.0176,0.0196,0.0202,0.0221,0.0228,0.024,0.0257,0.027,0.0289,0.0272,0.0295,0.027,0.025,0.0242,0.0216,0.0197,0.0185,0.0166,0.0164,0.015,0.0144,0.0125,0.0121,0.0169,0.0169,0.0169,0.0122,0,0.0202,0.0239,0.0242,0.0284,0.0304,0.0303,0.0327,0.0333,0.0333,0.0347,0.0319,0.0327,0.0281,0.0283,0.0255,0.0207,0.0184,0.0199,0.0125,0.0122,0.0107,0.012,0.0169,0.0121,0.0121,0.012,0.012,0,0.0231,0.0254,0.0298,0.0339,0.035,0.0374,0.0413,0.0432,0.0437,0.0437,0.0428,0.0404,0.0381,0.0341,0.0265,0.0277,0.0217,0.0172,0.0168,0.0135,0.0101,0.0098,0.0117,0.0117,0.0117,0.0117,0.0118,0,0.0256,0.0298,0.0339,0.0352,0.039,0.042,0.0444,0.046,0.0492,0.0499,0.0518,0.0474,0.0471,0.0389,0.0289,0.028,0.0201,0.0175,0.0101,0.0098,0.0108,0.0106,0.0123,0.0123,0.0123,0.0123,0.0123,0,0.0284,0.0319,0.0359,0.0383,0.0445,0.046,0.0525,0.0537,0.0572,0.0618,0.0571,0.0593,0.0484,0.0424,0.0318,0.0207,0.0221,0.0111,0.0088,0.0128,0.0129,0.0106,0.0105,0.0121,0.0122,0.0122,0.0122,0,0.0304,0.0326,0.0381,0.0435,0.0459,0.0507,0.0586,0.0632,0.0653,0.0714,0.0725,0.0689,0.0613,0.049,0.036,0.0256,0.0143,0.0098,0.0156,0.0135,0.0043,0.0045,0.0014,0.0013,0.0012,0.0012,0.0011,0,0.0316,0.0345,0.0421,0.0464,0.0494,0.0567,0.0624,0.067,0.0722,0.0774,0.0808,0.0763,0.0717,0.0527,0.038,0.0178,0.0141,0.007,0.0048,0.0053,0.0033,0.0037,0.0039,0.001,0.001,0.0009,0.0009,0,0.0341,0.037,0.0416,0.0502,0.0572,0.0652,0.0733,0.0777,0.084,0.0861,0.0884,0.0794,0.0707,0.0542,0.0385,0.0236,0.0108,0.006,0.0061,0.004,0.0047,0.0029,0.0033,0.0006,0.0007,0.0007,0.0007,0,0.0363,0.0398,0.0462,0.054,0.0628,0.0714,0.0756,0.0825,0.0878,0.0928,0.0935,0.0843,0.0792,0.0573,0.043,0.028,0.0231,0.0158,0.0152,0.0153,0.0196,0.0226,0.0228,0,0,0,0,0,0.0381,0.0422,0.0495,0.0583,0.0672,0.0725,0.0822,0.0858,0.0918,0.0942,0.0942,0.0863,0.067,0.0589,0.0438,0.039,0.0187,0.0202,0.0096,-0.001,-0.0007,0.0017,0,0,0,0,0,0,0.0393,0.0457,0.0493,0.0606,0.0672,0.0776,0.0841,0.0883,0.0893,0.0927,0.0832,0.08,0.0612,0.076,0.0429,0.0386,0.0289,0.0119,0.0115,-0.0012,-0.0009,-0.0006,0.0019,0,0,0,0,0]}]]